DW2659 Weather Reports


Display with metric or nautical units.
time (UTC)temp
F
wind
direction
speed
MPH
gust
MPH
rain 1hr
in
rain 24hr
in
rain mn
in
humidity
%
barometer
mb
20260905174902 98 83 2.0 3.0 0.00 0.00 0.00 45 1013.2
20260905174402 98 11 2.0 5.0 0.00 0.00 0.00 49 1013.2
20260905173904 98 68 1.0 3.0 0.00 0.00 0.00 47 1013.2
20260905173402 98 70 2.0 5.0 0.00 0.00 0.00 48 1013.2
20260905172902 98 105 1.0 3.0 0.00 0.00 0.00 47 1013.2
20260905172404 98 276 2.0 3.0 0.00 0.00 0.00 48 1013.2
20260905171902 98 216 1.0 2.0 0.00 0.00 0.00 50 1013.2
20260905171402 97 90 1.0 3.0 0.00 0.00 0.00 49 1013.4
20260905170903 97 0 1.0 3.0 0.00 0.00 0.00 52 1013.4
20260905170403 97 248 3.0 3.0 0.00 0.00 0.00 51 1013.4
20260905165402 96 353 2.0 3.0 0.00 0.00 0.00 51 1013.6
20260905164403 96 139 4.0 7.0 0.00 0.00 0.00 53 1013.9
20260905163902 96 57 1.0 3.0 0.00 0.00 0.00 53 1013.9
20260905163404 96 354 1.0 3.0 0.00 0.00 0.00 55 1013.9
20260905162402 96 80 1.0 2.0 0.00 0.00 0.00 55 1014.0
20260905161402 94 199 2.0 3.0 0.00 0.00 0.00 56 1014.1
20260905160903 94 345 1.0 2.0 0.00 0.00 0.00 57 1014.1
20260905160404 94 106 1.0 3.0 0.00 0.00 0.00 57 1014.1
20260905155902 94 50 1.0 3.0 0.00 0.00 0.00 59 1014.2
20260905155403 93 33 1.0 3.0 0.00 0.00 0.00 60 1014.2
20260905154903 93 114 1.0 2.0 0.00 0.00 0.00 59 1014.4
20260905154403 93 59 2.0 3.0 0.00 0.00 0.00 59 1014.4
20260905153902 92 38 1.0 3.0 0.00 0.00 0.00 62 1014.4
20260905152902 90 98 1.0 2.0 0.00 0.00 0.00 62 1014.4
20260905152403 90 118 2.0 3.0 0.00 0.00 0.00 61 1014.4
20260905151903 90 48 2.0 5.0 0.00 0.00 0.00 61 1014.4
20260905151403 90 119 2.0 3.0 0.00 0.00 0.00 62 1014.6
20260905150902 90 90 3.0 5.0 0.00 0.00 0.00 61 1014.6
20260905145902 89 99 2.0 5.0 0.00 0.00 0.00 63 1014.9
20260905144904 90 176 2.0 3.0 0.00 0.00 0.00 61 1014.9
20260905144403 89 120 1.0 3.0 0.00 0.00 0.00 65 1014.9
20260905143902 89 68 1.0 3.0 0.00 0.00 0.00 65 1014.9
20260905142903 88 153 2.0 5.0 0.00 0.00 0.00 67 1014.9
20260905142402 88 5 1.0 2.0 0.00 0.00 0.00 67 1014.9
20260905141904 87 25 1.0 2.0 0.00 0.00 0.00 69 1014.9
20260905141402 86 75 0.0 3.0 0.00 0.00 0.00 70 1014.8
20260905140403 85 69 2.0 5.0 0.00 0.00 0.00 71 1014.8
20260905135903 85 105 2.0 3.0 0.00 0.00 0.00 70 1014.9
20260905135403 85 99 2.0 5.0 0.00 0.00 0.00 71 1014.9
20260905134904 85 106 3.0 5.0 0.00 0.00 0.00 71 1014.9
20260905134403 85 157 1.0 3.0 0.00 0.00 0.00 73 1015.4
20260905133903 84 76 0.0 1.0 0.00 0.00 0.00 76 1015.4
20260905133403 83 76 1.0 2.0 0.00 0.00 0.00 75 1015.4
20260905131903 80 76 0.0 1.0 0.00 0.00 0.00 82 1015.4
20260905130902 78 76 0.0 0.0 0.00 0.00 0.00 86 1015.3
20260905130404 77 76 0.0 2.0 0.00 0.00 0.00 87 1015.3
20260905125903 76 76 0.0 1.0 0.00 0.00 0.00 90 1015.3
20260905124904 75 76 0.0 1.0 0.00 0.00 0.00 93 1015.2
20260905124403 74 76 1.0 2.0 0.00 0.00 0.00 93 1015.2
20260905123902 74 76 0.0 1.0 0.00 0.00 0.00 93 1015.0
20260905123404 73 76 0.0 1.0 0.00 0.00 0.00 93 1015.0
20260905122903 73 76 1.0 2.0 0.00 0.00 0.00 93 1015.0
20260905122403 73 76 0.0 0.0 0.00 0.00 0.00 93 1015.0
20260905121904 73 76 0.0 0.0 0.00 0.00 0.00 93 1015.0
20260905115402 72 76 0.0 0.0 0.00 0.00 0.00 93 1014.3
20260905114904 72 76 0.0 1.0 0.00 0.00 0.00 93 1014.3
20260905114403 72 76 0.0 1.0 0.00 0.00 0.00 93 1014.3
20260905113404 72 76 0.0 1.0 0.00 0.00 0.00 93 1014.3
20260905112902 72 76 0.0 0.0 0.00 0.00 0.00 92 1014.3
20260905111904 72 76 1.0 1.0 0.00 0.00 0.00 92 1014.3
20260905111402 72 76 1.0 1.0 0.00 0.00 0.00 92 1014.0
20260905110903 72 76 0.0 0.0 0.00 0.00 0.00 92 1014.0
20260905110404 72 76 0.0 1.0 0.00 0.00 0.00 92 1014.0
20260905105903 72 76 1.0 2.0 0.00 0.00 0.00 92 1014.0
20260905105402 72 76 0.0 0.0 0.00 0.00 0.00 92 1014.0
20260905104904 72 76 0.0 0.0 0.00 0.00 0.00 92 1014.0
20260905104402 72 76 0.0 0.0 0.00 0.00 0.00 91 1013.8
20260905103903 72 76 0.0 0.0 0.00 0.00 0.00 91 1013.8
20260905103404 72 76 0.0 0.0 0.00 0.00 0.00 91 1013.8
20260905102902 72 76 0.0 0.0 0.00 0.00 0.00 91 1013.8
20260905102403 72 76 0.0 0.0 0.00 0.00 0.00 91 1013.8
20260905101403 73 76 0.0 0.0 0.00 0.00 0.00 91 1013.8
20260905095903 73 76 0.0 0.0 0.00 0.00 0.00 91 1013.6
20260905094902 73 76 0.0 0.0 0.00 0.00 0.00 91 1013.6
20260905094404 73 76 0.0 0.0 0.00 0.00 0.00 91 1013.6
20260905093402 73 76 0.0 0.0 0.00 0.00 0.00 91 1013.7
20260905092904 73 76 0.0 0.0 0.00 0.00 0.00 90 1013.5
20260905092403 73 76 0.0 0.0 0.00 0.00 0.00 91 1013.5
20260905091903 73 76 0.0 0.0 0.00 0.00 0.00 91 1013.5
20260905091404 73 76 0.0 0.0 0.00 0.00 0.00 90 1013.6
20260905085904 73 76 0.0 0.0 0.00 0.00 0.00 90 1013.6
20260905084404 74 76 0.0 0.0 0.00 0.00 0.00 90 1013.7
20260905083903 73 76 0.0 1.0 0.00 0.00 0.00 90 1013.7
20260905082904 74 76 0.0 0.0 0.00 0.00 0.00 90 1013.7
20260905082403 74 76 0.0 0.0 0.00 0.00 0.00 90 1013.7
20260905081903 74 76 0.0 1.0 0.00 0.00 0.00 90 1013.7
20260905081404 74 76 0.0 1.0 0.00 0.00 0.00 89 1013.6
20260905080903 74 76 1.0 1.0 0.00 0.00 0.00 90 1013.6
20260905080402 74 76 0.0 1.0 0.00 0.00 0.00 89 1013.3
20260905075903 74 76 0.0 1.0 0.00 0.00 0.00 90 1013.3
20260905074903 74 76 0.0 1.0 0.00 0.00 0.00 89 1013.3
20260905074403 74 76 1.0 1.0 0.00 0.00 0.00 89 1013.3
20260905073403 74 76 0.0 1.0 0.00 0.00 0.00 88 1013.3
20260905072903 74 76 0.0 1.0 0.00 0.00 0.00 88 1013.3
20260905072404 74 76 0.0 1.0 0.00 0.00 0.00 88 1013.3
20260905071903 74 76 0.0 0.0 0.00 0.00 0.00 87 1013.3
20260905070904 75 76 1.0 1.0 0.00 0.00 0.00 87 1013.5
20260905065903 75 76 0.0 1.0 0.00 0.00 0.00 87 1013.6
20260905065404 75 76 1.0 2.0 0.00 0.00 0.00 87 1013.5
20260905064903 75 76 0.0 1.0 0.00 0.00 0.00 87 1013.8
20260905064403 75 76 0.0 1.0 0.00 0.00 0.00 87 1013.8
20260905063904 75 76 0.0 1.0 0.00 0.00 0.00 86 1013.8
20260905063403 75 76 1.0 1.0 0.00 0.00 0.00 86 1013.8
20260905062902 75 76 0.0 1.0 0.00 0.00 0.00 87 1013.7
20260905062405 75 76 0.0 1.0 0.00 0.00 0.00 87 1013.7
20260905061903 75 76 0.0 1.0 0.00 0.00 0.00 87 1013.7
20260905061403 75 76 0.0 0.0 0.00 0.00 0.00 86 1013.7
20260905060904 75 76 0.0 0.0 0.00 0.00 0.00 86 1013.8
20260905055903 75 76 0.0 1.0 0.00 0.00 0.00 86 1013.7
20260905054903 75 76 0.0 1.0 0.00 0.00 0.00 86 1013.7
20260905054404 75 76 0.0 1.0 0.00 0.00 0.00 86 1013.7
20260905053904 76 76 0.0 0.0 0.00 0.00 0.00 85 1013.8
20260905053403 76 76 0.0 1.0 0.00 0.00 0.00 85 1013.8
20260905052903 76 76 0.0 1.0 0.00 0.00 0.00 85 1013.7
20260905052404 76 76 0.0 0.0 0.00 0.00 0.00 85 1013.7
20260905051403 76 76 0.0 0.0 0.00 0.00 0.00 85 1014.1
20260905050905 76 76 0.0 0.0 0.00 0.00 0.00 85 1014.1
20260905050403 76 76 0.0 0.0 0.00 0.00 0.00 85 1014.1
20260905045903 76 76 0.0 0.0 0.00 0.00 0.00 85 1014.4
20260905045405 76 76 0.0 0.0 0.00 0.00 0.00 84 1014.4
20260905044403 76 76 0.0 0.0 0.00 0.00 0.00 84 1014.4
20260905043905 76 76 0.0 0.0 0.00 0.00 0.00 84 1014.4
20260905043403 76 76 0.0 0.0 0.00 0.00 0.00 84 1014.4
20260905042404 76 76 0.0 0.0 0.00 0.00 0.00 83 1014.4
20260905041403 76 76 0.0 1.0 0.00 0.00 0.00 83 1014.4
20260905040904 77 76 0.0 1.0 0.00 0.00 0.00 82 1014.4
20260905040403 77 76 1.0 2.0 0.00 0.00 0.00 82 1014.4
20260905035903 77 76 0.0 1.0 0.00 0.00 0.00 82 1014.7
20260905034904 77 76 0.0 2.0 0.00 0.00 0.00 81 1014.7
20260905033903 77 76 0.0 1.0 0.00 0.00 0.00 81 1014.7
20260905033404 78 76 0.0 0.0 0.00 0.00 0.00 80 1014.7
20260905032904 78 76 0.0 0.0 0.00 0.00 0.00 80 1014.7
20260905032403 78 76 0.0 0.0 0.00 0.00 0.00 80 1014.7
20260905031904 78 76 0.0 0.0 0.00 0.00 0.00 79 1014.7
20260905030904 78 76 0.0 0.0 0.00 0.00 0.00 79 1015.0
20260905030404 78 76 0.0 0.0 0.00 0.00 0.00 79 1015.0
20260905025903 78 76 0.0 0.0 0.00 0.00 0.00 78 1015.0
20260905025403 78 76 0.0 0.0 0.00 0.00 0.00 79 1015.0
20260905024904 78 76 0.0 0.0 0.00 0.00 0.00 78 1015.0
20260905023903 79 76 1.0 1.0 0.00 0.00 0.00 77 1014.8
20260905023404 79 76 1.0 2.0 0.00 0.00 0.00 76 1014.8
20260905022903 79 76 1.0 2.0 0.00 0.00 0.00 76 1014.8
20260905022403 79 76 0.0 0.0 0.00 0.00 0.00 74 1014.8
20260905021903 79 76 0.0 0.0 0.00 0.00 0.00 75 1014.8
20260905021405 80 76 0.0 1.0 0.00 0.00 0.00 75 1014.7
20260905020904 80 76 0.0 1.0 0.00 0.00 0.00 75 1014.7
20260905020403 80 76 1.0 1.0 0.00 0.00 0.00 74 1014.7
20260905015403 80 76 0.0 0.0 0.00 0.00 0.00 72 1014.7
20260905014903 81 76 0.0 0.0 0.00 0.00 0.00 72 1014.7
20260905014404 81 76 0.0 0.0 0.00 0.00 0.00 71 1014.7
20260905013903 81 76 0.0 0.0 0.00 0.00 0.00 71 1014.7
20260905012905 81 76 0.0 0.0 0.00 0.00 0.00 70 1014.6
20260905012403 82 76 0.0 0.0 0.00 0.00 0.00 70 1014.6
20260905011903 82 76 0.0 0.0 0.00 0.00 0.00 70 1014.6
20260905010904 83 76 0.0 0.0 0.00 0.00 0.00 68 1014.5
20260905005403 84 76 0.0 1.0 0.00 0.00 0.00 67 1014.4
20260905004903 84 76 1.0 1.0 0.00 0.00 0.00 67 1014.4
20260905003904 85 76 0.0 0.0 0.00 0.00 0.00 65 1014.2
20260905003403 85 76 0.0 0.0 0.00 0.00 0.00 65 1014.2
20260905002904 85 76 0.0 0.0 0.00 0.00 0.00 64 1014.2
20260905001903 86 76 0.0 1.0 0.00 0.00 0.00 63 1014.2
20260905001404 86 76 1.0 3.0 0.00 0.00 0.00 62 1014.2
20260905000903 87 160 1.0 3.0 0.00 0.00 0.00 62 1014.2
20260904235904 87 219 0.0 2.0 0.00 0.00 0.00 60 1014.3
20260904235404 88 219 1.0 3.0 0.00 0.00 0.00 58 1014.3
20260904234903 88 219 1.0 2.0 0.00 0.00 0.00 60 1014.3
20260904234404 89 355 1.0 3.0 0.00 0.00 0.00 59 1014.1
20260904233904 90 336 1.0 3.0 0.00 0.00 0.00 57 1014.1
20260904233403 90 211 0.0 2.0 0.00 0.00 0.00 54 1014.1
20260904232904 90 98 0.0 5.0 0.00 0.00 0.00 53 1014.1
20260904232404 90 159 3.0 5.0 0.00 0.00 0.00 52 1014.1
20260904231405 91 105 0.0 3.0 0.00 0.00 0.00 60 1013.7
20260904230903 92 115 0.0 0.0 0.00 0.00 0.00 60 1013.4
20260904230404 92 115 0.0 0.0 0.00 0.00 0.00 57 1013.4
20260904225404 94 115 0.0 1.0 0.00 0.00 0.00 54 1013.4
20260904224405 96 115 0.0 1.0 0.00 0.00 0.00 52 1013.3
20260904223904 96 115 0.0 1.0 0.00 0.00 0.00 52 1013.3
20260904223403 97 115 0.0 1.0 0.00 0.00 0.00 52 1013.3
20260904222403 98 115 1.0 1.0 0.00 0.00 0.00 51 1013.3
20260904221903 100 115 0.0 1.0 0.00 0.00 0.00 47 1013.3
20260904221405 101 115 0.0 1.0 0.00 0.00 0.00 47 1013.2
20260904220904 101 115 0.0 1.0 0.00 0.00 0.00 46 1013.2
20260904220403 102 115 1.0 1.0 0.00 0.00 0.00 46 1013.2
20260904215905 102 115 0.0 1.0 0.00 0.00 0.00 44 1013.2
20260904215403 102 115 0.0 3.0 0.00 0.00 0.00 44 1013.2
20260904214404 102 281 0.0 1.0 0.00 0.00 0.00 46 1013.4
20260904213904 102 281 0.0 1.0 0.00 0.00 0.00 45 1013.4
20260904212905 102 281 1.0 2.0 0.00 0.00 0.00 46 1013.4
20260904212404 102 281 1.0 2.0 0.00 0.00 0.00 48 1013.7
20260904211904 102 281 0.0 2.0 0.00 0.00 0.00 47 1013.7
20260904211405 102 281 1.0 2.0 0.00 0.00 0.00 45 1013.8
20260904210904 102 281 1.0 2.0 0.00 0.00 0.00 42 1013.8
20260904210404 102 266 1.0 3.0 0.00 0.00 0.00 44 1013.8
20260904205904 102 136 1.0 1.0 0.00 0.00 0.00 45 1013.8
20260904205404 102 136 1.0 2.0 0.00 0.00 0.00 45 1013.8
20260904204404 102 136 0.0 2.0 0.00 0.00 0.00 46 1013.9
20260904203904 101 136 0.0 1.0 0.00 0.00 0.00 46 1013.9
20260904203403 101 136 1.0 2.0 0.00 0.00 0.00 46 1013.9
20260904202904 101 132 0.0 2.0 0.00 0.00 0.00 46 1014.6
20260904202404 101 22 1.0 2.0 0.00 0.00 0.00 46 1014.6
20260904201903 100 22 1.0 2.0 0.00 0.00 0.00 47 1014.6
20260904201405 100 22 1.0 3.0 0.00 0.00 0.00 48 1014.6
20260904200904 99 331 0.0 2.0 0.00 0.00 0.00 48 1014.6
20260904200404 99 319 1.0 2.0 0.00 0.00 0.00 47 1014.6
20260904195905 100 345 1.0 2.0 0.00 0.00 0.00 46 1014.6
20260904195404 100 299 1.0 2.0 0.00 0.00 0.00 46 1014.6
20260904194904 99 179 3.0 6.0 0.00 0.00 0.00 44 1014.6
20260904194404 99 211 2.0 6.0 0.00 0.00 0.00 46 1014.8
20260904193904 99 260 1.0 3.0 0.00 0.00 0.00 46 1014.8
20260904192404 98 55 0.0 1.0 0.00 0.00 0.00 48 1015.5
20260904191903 97 55 1.0 3.0 0.00 0.00 0.00 48 1015.5
20260904191405 96 12 1.0 2.0 0.00 0.00 0.00 55 1015.5
20260904190904 96 12 0.0 1.0 0.00 0.00 0.00 54 1015.5
20260904190403 97 12 0.0 2.0 0.00 0.00 0.00 51 1015.5
20260904185905 97 12 1.0 2.0 0.00 0.00 0.00 50 1015.6
20260904185404 98 16 2.0 3.0 0.00 0.00 0.00 48 1015.6
20260904184904 97 25 1.0 3.0 0.00 0.00 0.00 50 1015.6
20260904184404 97 29 0.0 2.0 0.00 0.00 0.00 51 1015.9
20260904183404 97 26 2.0 3.0 0.00 0.00 0.00 49 1015.9
20260904182905 97 26 2.0 3.0 0.00 0.00 0.00 50 1016.2
20260904182404 97 10 2.0 3.0 0.00 0.00 0.00 49 1016.2
20260904181903 97 18 2.0 3.0 0.00 0.00 0.00 50 1016.2
20260904181403 96 26 2.0 5.0 0.00 0.00 0.00 52 1016.2
20260904180905 97 62 3.0 3.0 0.00 0.00 0.00 49 1016.2
20260904180404 97 121 2.0 3.0 0.00 0.00 0.00 49 1016.2
20260904175405 97 122 3.0 7.0 0.00 0.00 0.00 50 1016.7